Wilmington, DE

2:32 AM EDT on May 23, 2018 (GMT -0400)
New Castle County

Weather History for KILG - March, 2013

Change the Weather History Date:

Friday, March 15, 2013

  Actual Average Record
Temperature  
Mean Temperature 40 °F 43 °F  
Max Temperature 53 °F 52 °F 80 °F (1990)
Min Temperature 27 °F 33 °F 13 °F (1993)
Degree Days  
Heating Degree Days 25 22  
Month to date heating degree days 362 369  
Since 1 July heating degree days 3758 3992  
Cooling Degree Days 0 0  
Month to date cooling degree days 0 0  
Year to date cooling degree days 0 0  
Moisture  
Dew Point 19 °F    
Average Humidity 44    
Maximum Humidity 60    
Minimum Humidity 28    
Precipitation  
Precipitation 0.00 in 0.13 in 2.32 in (1912)
Month to date precipitation 1.05 1.74  
Year to date precipitation 7.06 7.43  
Snow  
Snow 0.00 in 0.00 in 4.00 in (1937)
Month to date snowfall T 1.4  
Since 1 July snowfall 4.2 19.4  
Snow Depth 0.00 in    
Sea Level Pressure  
Sea Level Pressure 29.93 in    
Wind  
Wind Speed 10 mph (WSW)    
Max Wind Speed 23 mph    
Max Gust Speed 33 mph    
Visibility 10 miles    
Events      
T = Trace of Precipitation, MM = Missing Value Source: NWS Daily Summary

Daily Weather History Graph

Daily Weather History Graph

Search for Another Location

Airport or City:

Astronomy

Mar. 15, 2013 Rise Set
Actual Time 7:13 AM EDT 7:09 PM EDT
Civil Twilight 6:46 AM EDT 7:36 PM EDT
Nautical Twilight 6:15 AM EDT 8:07 PM EDT
Astronomical Twilight 5:43 AM EDT 8:39 PM EDT
Moon 9:03 AM EDT (3/15) 11:20 PM EDT (3/15)
Length of Visible Light 12h 49m
Length of Day
11h 56m
Waxing Crescent, 15% of the Moon is Illuminated
Mar 15
Waxing Crescent
Mar 19
First Quarter
Mar 27
Full
Apr 3
Last Quarter
Apr 10
New

Hourly Weather History & Observations

Time (EDT) Temp. Windchill Dew Point Humidity Pressure Visibility Wind Dir Wind Speed Gust Speed Precip Events Conditions
12:51 AM 34.0 °F 24.6 °F 12.0 °F 40% 30.05 in 10.0 mi NW 13.8 mph - N/A   Clear
1:51 AM 32.0 °F 23.6 °F 12.0 °F 44% 30.06 in 10.0 mi NW 10.4 mph - N/A   Clear
2:51 AM 30.2 °F 22.6 °F 12.2 °F 47% 30.06 in 10.0 mi WNW 8.1 mph - N/A   Clear
3:51 AM 28.9 °F 21.9 °F 12.9 °F 51% 30.06 in 10.0 mi WNW 6.9 mph - N/A   Clear
4:51 AM 28.0 °F 20.8 °F 12.0 °F 51% 30.05 in 10.0 mi WNW 6.9 mph - N/A   Clear
5:51 AM 30.0 °F 26.5 °F 12.0 °F 47% 30.06 in 10.0 mi WSW 3.5 mph - N/A   Clear
6:51 AM 28.9 °F 25.2 °F 12.0 °F 49% 30.06 in 10.0 mi SSW 3.5 mph - N/A   Clear
7:51 AM 30.0 °F 25.2 °F 15.1 °F 54% 30.06 in 10.0 mi WSW 4.6 mph - N/A   Clear
8:51 AM 34.0 °F 28.0 °F 18.0 °F 52% 30.05 in 10.0 mi WSW 6.9 mph - N/A   Clear
9:51 AM 37.0 °F 29.3 °F 21.0 °F 52% 30.03 in 10.0 mi WSW 11.5 mph - N/A   Mostly Cloudy
10:51 AM 39.9 °F 32.5 °F 21.9 °F 49% 30.00 in 10.0 mi WSW 12.7 mph - N/A   Partly Cloudy
11:51 AM 43.0 °F 35.7 °F 21.0 °F 42% 29.97 in 10.0 mi SW 15.0 mph 20.7 mph N/A   Overcast
12:51 PM 45.0 °F 37.6 °F 21.9 °F 40% 29.94 in 10.0 mi SW 17.3 mph - N/A   Overcast
1:51 PM 48.0 °F - 21.0 °F 34% 29.90 in 10.0 mi SW 19.6 mph 26.5 mph N/A   Mostly Cloudy
2:51 PM 48.9 °F - 19.9 °F 32% 29.87 in 10.0 mi SW 18.4 mph 31.1 mph N/A   Clear
3:51 PM 51.1 °F - 19.9 °F 29% 29.83 in 10.0 mi SW 13.8 mph 27.6 mph N/A   Clear
4:51 PM 53.1 °F - 21.0 °F 29% 29.79 in 10.0 mi SW 18.4 mph 27.6 mph N/A   Clear
5:51 PM 52.0 °F - 21.9 °F 31% 29.78 in 10.0 mi SW 20.7 mph 27.6 mph N/A   Clear
6:51 PM 50.0 °F - 23.0 °F 35% 29.78 in 10.0 mi SW 9.2 mph - N/A   Clear
7:51 PM 46.9 °F - 24.1 °F 41% 29.78 in 10.0 mi SW 5.8 mph - N/A   Clear
8:51 PM 46.0 °F 43.1 °F 26.1 °F 46% 29.80 in 10.0 mi SW 5.8 mph - N/A   Mostly Cloudy
9:51 PM 43.0 °F 40.3 °F 27.0 °F 53% 29.81 in 10.0 mi WNW 4.6 mph - N/A   Clear
10:51 PM 41.0 °F 37.1 °F 28.0 °F 60% 29.81 in 10.0 mi West 5.8 mph - N/A   Clear
11:51 PM 41.0 °F - 28.9 °F 62% 29.80 in 10.0 mi Calm Calm - N/A   Partly Cloudy